Location: Cheyres
(46.8153°N, 6.7877°E)
Time: 14:10:31
(UTC+00:00)

SL-24 R/B - RUBIN 2 - Pass Details

Date: 11 May 2021
Orbit: 583 x 1012 km, 64.6° (Epoch: 19 June)

Event Time Altitude Azimuth Distance (km) Brightness Sun altitude
Rises 22:04:09 0° 321° (NW) 3,414 8.7 -22.3°
Reaches altitude 10° 22:06:46 10° 321° (NW) 2,405 7.6 -22.5°
Maximum altitude 22:12:16 83° 236° (SW) 749 3.8 -22.8°
Enters shadow 22:13:07 62° 158° (SSE) 817 3.8 -22.8°
